星链-32788 (STARLINK-32788)

导读 | 豆包AI

STARLINK-32788是美国SpaceX星链星座的成员,于2025年1月6日发射升空。星链计划旨在构建全球卫星互联网星座,为全球范围内提供高速低延迟的互联网接入服务。该卫星加入星座后,进一步扩充了星链低轨卫星网络的覆盖能力,助力星链服务覆盖范围与服务稳定性的提升。

基本信息
目录编号:
62502
目录名称:
STARLINK-32788
国际标识:
2025-003R
轨道中心:
EARTH
卫星名称:
星链-32788
卫星全名:
星链-32788 (STARLINK-32788)
卫星状态:
在轨 (已飞行478 天)
发射日期:
2025-01-06 UTC
国别 :
美国 (US)
星等 :
--
轨道信息
数据来源 国际轨道数据
星历时间: 2026-04-29T16:54:28+0800
14小时前
查看轨道信息
半长轴: 6861.197km
偏心率: 0.0000507
轨道倾角: 43.000°
近地点辐角 318.611°
升交点赤经 2.666°
平近点角 41.470°
近地点: 482.712km
远地点: 483.408km
周期: 94.267分钟
每日圈数: 15.275766
详细信息
固有亮度:
5
最大亮度:
2.5
卫星平台:
Starlink V1.0
覆盖范围:
全球
运营商:
太空探索技术公司
运营商所在国:
美国
制造商(研发单位):
太空探索技术公司
制造商所在国:
美国
使用方式:
暂无
卫星简介
Starlink 计划是 SpaceX 推出的全球卫星互联网项目,通过发射低轨道卫星,为全球尤其是偏远地区提供高速、低延迟的互联网服务。自 2019 年起,Starlink 已部署数千颗卫星,旨在缩小全球数字鸿沟,推动互联网普及。该项目还为军事、航空等行业提供通信支持,带来广泛经济效益。
2D轨道图
3D轨道图
轨道高度分析图
轨道倾角分析图
轨道综合分析图
查看轨道综合分析图